Powrót do katalogu

STARLINK-37045

AktywnyŁącznośćVLEO
NORAD 68074·PAYLOAD·🇺🇸 United States

Wystrzelony Mar 4, 2026 z Vandenberg Space Force Base

Loading…

Następne Przeloty (najbliższe 24 godziny)

TLE

ŚwieżeSource: CelesTrak SupGP

Epoka: Sep 14, 2026, 21:16 UTC

1 68074C 26042F   26257.88659722  .00006592  00000+0  19509-3 0  2573
2 68074  53.1597  16.1543 0001276  66.1157 358.1258 15.34336027    16

Śledź STARLINK-37045 w czasie rzeczywistym z AllMySat

Download on the App Store